Regional Weather Roundup
Issued by NWS

Home | Current Version | Previous Version | Text Only | Print | Product List | Glossary Off
Versions: 1 2 3 4 5 6 7 8 9 10 11 12 13 14 15 16 17 18 19 20 21 22 23 24 25 26 27 28 29 30 31 32 33 34 35 36 37 38 39 40 41 42 43 44 45 46 47 48 49 50

000
ASUS44 KOUN 311410
RWROK

WEATHER ROUNDUP FOR OKLAHOMA
NATIONAL WEATHER SERVICE NORMAN OK
900 AM CDT MON AUG 31 2015

NOTE: "FAIR" INDICATES FEW OR NO CLOUDS BELOW 12,000 FEET WITH NO
      SIGNIFICANT WEATHER AND/OR OBSTRUCTIONS TO VISIBILITY.

OKZ001>007-009>012-014-015-017-311500-
NORTHWEST OKLAHOMA AND THE PANHANDLE

CITY           SKY/WX    TMP DP  RH WIND       PRES   REMARKS
GAGE           SUNNY     74  57  55 S7        29.99R
GUYMON         SUNNY     71  54  54 S10       29.98R
ENID/WOODRING  SUNNY     70  68  94 SE5       29.95R
$$

OKZ016-021>023-033>039-044-045-311500-
SOUTHWEST OKLAHOMA

CITY           SKY/WX    TMP DP  RH WIND       PRES   REMARKS
LAWTON/REGL    SUNNY     73  63  70 SE5       30.02R
LAWTON/FT SILL SUNNY     73  64  73 S9        30.01R
FREDERICK      SUNNY     75  63  66 SE7       29.99R
CLINTON        SUNNY     74  59  59 S13       30.02R
HOBART         SUNNY     76  61  59 S17       30.01R
ALTUS AFB      SUNNY     72  62  69 SE7       30.01R
$$

OKZ018>020-024>031-311500-
CENTRAL OKLAHOMA

CITY           SKY/WX    TMP DP  RH WIND       PRES   REMARKS
OKLAHOMA CITY  MOSUNNY   73  65  75 S13       30.00R
OKC/WILEY POST SUNNY     75  63  66 S13       29.99R
OKC/TINKER AFB SUNNY     73  64  72 S13       30.00R
STILLWATER     SUNNY     73  65  75 S8        29.98R
GUTHRIE        SUNNY     76  63  64 S10       29.98R
$$

OKZ008-013-054>072-311500-
NORTHEAST OKLAHOMA

CITY           SKY/WX    TMP DP  RH WIND       PRES   REMARKS
TULSA          MOSUNNY   78  68  71 S14       29.99R
TULSA/JONES    MOSUNNY   76  68  76 S8        30.00R
PONCA CITY     SUNNY     74  66  76 SE9       29.97R
MUSKOGEE       SUNNY     75  71  87 S7        30.04R
$$

OKZ032-040>043-046>053-073>077-311500-
SOUTH CENTRAL/SOUTHEAST OKLAHOMA

CITY           SKY/WX    TMP DP  RH WIND       PRES   REMARKS
ARDMORE/DWNTWN SUNNY     77  63  61 S5        30.03S
MCALESTER      MOSUNNY   77  68  73 S5        30.05R
$$




USA.gov is the U.S. government's official web portal to all federal, state and local government web resources and services.